{"data":{"norad_id":69380,"intl_designator":"2026-123AD","name":"STARLINK-37411","alt_names":[],"object_type":"PAYLOAD","status":"ACTIVE","operator":null,"country":"US","launch_date":"2026-06-04","launch_site_code":"AFETR","launch_vehicle":null,"mission":null,"orbit_class":"UNKNOWN","rcs_meters":null,"size_class":null,"mass_kg":null,"dimensions":null,"purposes":["comms"],"wikipedia_slug":null,"has_3d_model":false,"image_url":null,"decayed_at":null,"tle_current":{"epoch":"2026-09-19T22:55:23.924928Z","epoch_age_seconds":76179,"freshness":"FRESH","line1":"1 69380U 26123AD  26262.95513802  .00016895  00000+0  50993-3 0  9998","line2":"2 69380  53.1575 144.4377 0000472  68.4206 291.6847 15.34406113 16780","mean_motion":15.34406113,"eccentricity":4.72e-5,"inclination_deg":53.1575,"raan_deg":144.4377,"arg_perigee_deg":68.4206,"mean_anomaly_deg":291.6847,"bstar":0.00050993,"rev_number":1678,"period_min":93.84738419639,"perigee_km":462.36218434141,"apogee_km":463.00795794493,"semimajor_km":6840.8220711432,"source":"CELESTRAK","updated_at":"2026-09-20T09:00:44.193596Z"}}}